Total_Precipitation_Accumulation
0.00 0.00 0.01 0.02 0.04 0.11 0.19 0.21 0.29 0.33 0.48 0.52 0.56 0.66 0.67 0.70 1.02 1.63 1.03 0.62 0.41 0.25 0.15 0.11 0.12 0.12 0.12 0.15 0.19 0.23 0.22 0.21 0.20 0.21 0.19 0.19 0.18 0.18 0.20 0.20 0.23 0.30 0.33 0.31 0.31 0.32 0.31 0.28 0.22
0.00 0.01 0.01 0.03 0.09 0.16 0.24 0.32 0.43 0.39 0.44 0.52 0.57 0.63 0.60 0.57 0.49 0.52 0.60 0.54 0.38 0.25 0.20 0.13 0.12 0.13 0.13 0.14 0.17 0.21 0.23 0.25 0.27 0.29 0.24 0.20 0.21 0.22 0.22 0.22 0.26 0.29 0.31 0.29 0.26 0.24 0.22 0.20 0.18
0.01 0.01 0.03 0.05 0.09 0.15 0.31 0.38 0.48 0.47 0.53 0.55 0.66 0.71 0.73 0.66 0.56 0.55 0.56 0.46 0.34 0.28 0.27 0.20 0.17 0.16 0.15 0.16 0.19 0.24 0.28 0.30 0.33 0.33 0.30 0.24 0.21 0.22 0.24 0.30 0.34 0.37 0.37 0.36 0.35 0.29 0.22 0.19 0.20
0.01 0.02 0.04 0.08 0.11 0.16 0.25 0.34 0.45 0.58 0.71 0.62 0.64 0.71 0.70 0.67 0.62 0.59 0.56 0.47 0.32 0.28 0.26 0.23 0.24 0.21 0.19 0.19 0.22 0.28 0.34 0.36 0.35 0.35 0.35 0.33 0.27 0.27 0.32 0.39 0.43 0.42 0.41 0.45 0.49 0.41 0.32 0.25 0.22
0.02 0.04 0.07 0.11 0.16 0.20 0.28 0.34 0.47 0.70 0.76 0.65 0.63 0.83 0.96 0.97 0.80 0.67 0.60 0.54 0.42 0.35 0.32 0.33 0.34 0.32 0.29 0.27 0.30 0.37 0.41 0.43 0.43 0.42 0.41 0.41 0.34 0.32 0.38 0.46 0.49 0.48 0.47 0.47 0.45 0.37 0.30 0.27 0.26
0.02 0.05 0.10 0.16 0.23 0.23 0.30 0.42 0.54 0.70 0.85 0.73 0.71 0.97 1.35 1.41 1.17 0.96 0.72 0.73 0.64 0.48 0.42 0.43 0.44 0.46 0.48 0.45 0.46 0.48 0.45 0.45 0.47 0.49 0.50 0.47 0.40 0.36 0.40 0.48 0.55 0.62 0.57 0.50 0.44 0.36 0.30 0.28 0.27
0.02 0.05 0.10 0.16 0.23 0.29 0.30 0.37 0.58 0.75 0.92 0.97 0.85 1.05 1.37 1.48 1.30 1.05 0.97 0.96 0.88 0.82 0.73 0.61 0.56 0.55 0.58 0.56 0.54 0.56 0.54 0.52 0.50 0.51 0.50 0.50 0.47 0.42 0.49 0.57 0.62 0.62 0.55 0.51 0.48 0.43 0.35 0.32 0.30
0.03 0.05 0.10 0.14 0.24 0.32 0.34 0.43 0.61 0.77 0.95 0.99 0.84 1.08 1.50 1.52 1.26 1.18 1.25 1.22 1.21 1.40 1.65 1.16 0.80 0.70 0.64 0.62 0.64 0.67 0.69 0.68 0.63 0.59 0.54 0.53 0.55 0.58 0.65 0.66 0.67 0.64 0.57 0.53 0.54 0.50 0.44 0.39 0.36
0.03 0.05 0.09 0.16 0.26 0.35 0.38 0.49 0.55 0.55 0.81 0.80 0.69 0.84 1.32 1.34 1.18 1.27 1.47 1.65 1.54 1.71 1.98 1.42 1.08 1.00 0.94 0.91 0.80 0.84 0.86 0.85 0.81 0.75 0.70 0.71 0.80 1.00 1.02 0.81 0.84 0.74 0.66 0.61 0.60 0.58 0.54 0.52 0.48
0.04 0.08 0.12 0.15 0.25 0.35 0.44 0.46 0.57 0.65 0.82 0.82 0.67 0.68 0.95 1.29 1.41 1.46 1.59 2.07 2.10 1.86 1.68 1.60 1.56 1.35 1.20 1.17 1.26 1.24 1.11 1.10 1.01 1.11 0.99 1.07 1.45 1.54 1.32 1.26 1.16 1.00 0.87 0.79 0.78 0.81 0.76 0.70 0.66
0.06 0.15 0.15 0.19 0.28 0.43 0.53 0.55 0.69 0.91 0.97 0.94 0.93 0.99 1.29 1.50 1.66 1.80 1.89 2.18 2.53 2.56 2.05 1.83 1.75 1.66 1.54 1.66 1.82 1.83 1.77 1.71 1.51 1.57 1.45 1.53 1.65 1.58 1.57 1.62 1.47 1.39 1.26 1.26 1.26 1.11 0.95 0.91 0.97
0.08 0.12 0.12 0.24 0.30 0.36 0.53 0.58 0.64 0.87 1.09 1.10 1.12 1.33 1.70 1.79 1.92 2.18 2.25 2.47 2.64 2.81 2.62 2.13 2.04 2.12 2.26 2.34 2.26 2.15 2.14 2.12 2.01 2.01 1.79 1.89 2.00 2.03 1.95 2.03 1.92 1.94 1.84 1.85 1.72 1.58 1.42 1.31 1.19
0.10 0.16 0.15 0.21 0.28 0.35 0.42 0.58 0.62 0.76 0.82 0.95 1.05 1.34 1.68 1.55 1.85 2.23 2.31 2.64 2.82 2.75 2.57 2.35 2.45 2.58 2.64 2.61 2.61 2.47 2.44 2.61 2.57 2.50 2.37 2.37 2.31 2.24 2.22 2.19 2.22 2.11 2.21 2.25 2.20 1.95 1.75 1.64 1.48
0.09 0.10 0.13 0.17 0.21 0.28 0.33 0.47 0.59 0.70 0.76 0.79 0.93 1.12 1.38 1.53 1.79 2.12 2.44 2.83 2.78 2.68 2.74 2.69 2.86 2.76 2.68 2.75 2.90 2.89 2.73 2.92 3.10 3.19 3.07 2.81 2.68 2.62 2.60 2.68 2.66 2.41 2.39 2.47 2.54 2.41 2.20 1.93 1.75
0.12 0.11 0.14 0.18 0.19 0.21 0.26 0.46 0.57 0.64 0.72 0.71 0.83 0.95 1.11 1.46 1.74 2.22 2.62 2.96 2.94 2.85 2.84 2.94 2.82 2.98 3.09 3.17 3.14 3.06 2.99 3.08 3.24 3.37 3.43 3.11 2.85 2.91 2.90 3.04 3.02 2.69 2.60 2.73 2.82 2.79 2.66 2.27 1.99
0.11 0.13 0.18 0.20 0.20 0.21 0.30 0.59 0.72 0.70 0.68 0.70 0.77 0.82 1.06 1.47 1.80 2.19 2.50 2.80 2.82 2.92 3.18 3.17 2.82 3.13 3.29 3.31 3.30 3.16 3.21 3.43 3.57 3.56 3.62 3.41 3.07 2.99 3.07 3.01 2.85 2.77 2.82 3.05 3.25 3.18 3.10 2.85 2.57
0.14 0.16 0.21 0.23 0.23 0.23 0.33 0.61 0.82 0.73 0.66 0.74 0.75 0.85 1.04 1.32 1.74 2.06 2.43 2.82 3.01 3.26 3.62 3.35 2.97 3.13 3.28 3.41 3.52 3.34 3.41 3.71 3.84 3.88 3.74 3.40 3.13 3.14 3.29 3.31 3.24 3.16 3.17 3.23 3.13 3.29 3.15 3.20 3.01
0.17 0.19 0.30 0.31 0.30 0.31 0.40 0.57 0.76 0.87 0.80 0.86 0.88 0.97 1.17 1.24 1.39 1.63 2.10 2.65 3.02 3.53 4.09 3.67 3.16 3.20 3.47 3.44 3.38 3.42 3.57 3.85 4.08 4.03 3.82 3.56 3.47 3.42 3.55 3.51 3.55 3.62 3.66 3.48 3.38 3.40 3.21 3.07 2.98
0.14 0.19 0.32 0.41 0.35 0.37 0.49 0.65 0.79 0.99 0.95 0.89 1.00 1.19 1.16 1.13 1.26 1.43 1.90 2.49 2.92 3.43 3.82 3.81 3.52 3.54 3.60 3.62 3.46 3.67 3.88 4.18 4.47 4.39 4.25 4.15 4.04 4.01 4.03 4.06 4.04 3.90 3.81 3.66 3.48 3.38 3.27 3.04 2.84
0.10 0.18 0.31 0.43 0.37 0.39 0.51 0.76 0.95 1.03 1.10 1.14 1.14 1.34 1.23 1.19 1.33 1.59 2.02 2.34 2.76 3.13 3.32 3.61 3.72 3.74 3.52 3.82 4.09 4.31 4.62 4.74 5.08 5.36 5.40 5.22 4.94 4.71 4.50 4.46 4.26 3.97 3.78 3.64 3.45 3.32 3.16 2.88 2.73
0.09 0.14 0.27 0.34 0.32 0.35 0.48 0.94 1.09 1.20 1.19 1.32 1.43 1.60 1.52 1.47 1.59 1.87 2.15 2.30 2.55 2.97 3.24 3.53 3.82 3.93 3.84 4.23 4.73 5.15 5.45 5.45 5.53 5.59 5.61 5.57 5.15 4.78 4.51 4.22 4.09 3.93 3.75 3.58 3.47 3.35 3.22 2.96 2.77
0.08 0.08 0.13 0.19 0.25 0.41 0.43 0.86 1.19 1.38 1.43 1.39 1.59 1.70 1.68 1.47 1.47 1.75 2.03 2.40 2.46 2.78 3.07 3.31 3.65 4.05 4.35 4.75 5.20 5.74 6.03 6.16 6.04 5.72 5.47 5.16 4.78 4.42 4.01 3.79 3.81 3.67 3.46 3.25 3.01 2.88 2.84 2.77 2.64
0.06 0.05 0.10 0.14 0.21 0.38 0.43 0.72 1.23 1.42 1.46 1.47 1.59 1.63 1.65 1.54 1.48 1.61 1.75 2.09 2.33 2.59 2.86 3.13 3.47 3.88 4.51 5.27 5.80 6.18 6.47 6.43 6.00 5.49 4.90 4.45 4.14 3.85 3.57 3.38 3.43 3.33 3.10 2.88 2.62 2.39 2.29 2.26 2.32
0.03 0.07 0.14 0.17 0.23 0.47 0.42 0.68 1.35 1.56 1.58 1.67 1.64 1.63 1.68 1.65 1.62 1.70 1.82 2.10 2.25 2.36 2.61 2.93 3.35 3.66 4.17 4.90 5.54 5.83 6.01 5.94 5.55 4.91 4.35 3.97 3.58 3.24 2.91 2.65 2.56 2.47 2.31 2.20 2.14 2.06 1.99 1.95 2.02
0.04 0.15 0.35 0.46 0.49 0.49 0.40 0.70 1.40 1.62 1.60 1.65 1.73 1.78 1.83 1.85 1.80 1.73 1.74 1.88 2.08 2.17 2.35 2.62 2.94 3.33 3.66 4.05 4.65 4.77 4.81 4.63 4.24 3.98 3.72 3.31 2.92 2.58 2.29 2.07 1.95 1.90 1.86 1.82 1.81 1.79 1.74 1.65 1.66
0.04 0.12 0.40 0.58 0.58 0.60 0.67 1.15 1.74 1.75 1.69 1.69 1.65 1.61 1.65 1.73 1.65 1.62 1.56 1.76 1.98 2.17 2.31 2.42 2.62 2.97 3.28 3.40 3.53 3.50 3.42 3.37 3.20 2.98 2.68 2.40 2.19 2.04 1.92 1.77 1.65 1.60 1.64 1.63 1.66 1.60 1.50 1.42 1.40
0.05 0.07 0.15 0.26 0.39 0.64 0.99 1.50 1.98 2.08 1.93 1.76 1.67 1.57 1.53 1.52 1.45 1.48 1.48 1.58 1.76 2.01 2.12 2.19 2.25 2.39 2.42 2.44 2.48 2.50 2.51 2.39 2.31 2.22 1.99 1.82 1.70 1.58 1.55 1.52 1.48 1.39 1.35 1.30 1.27 1.25 1.24 1.27 1.28
0.05 0.08 0.13 0.29 0.53 0.83 1.18 1.73 2.19 2.38 2.20 1.76 1.55 1.44 1.41 1.44 1.44 1.45 1.48 1.53 1.49 1.54 1.63 1.75 1.86 1.99 1.99 1.92 1.84 1.90 1.90 1.79 1.66 1.54 1.45 1.36 1.28 1.22 1.24 1.19 1.17 1.20 1.20 1.12 1.06 1.04 1.06 1.08 1.13
0.10 0.13 0.17 0.32 0.43 0.72 1.31 1.96 2.07 2.39 2.35 2.02 1.69 1.46 1.45 1.54 1.52 1.42 1.44 1.42 1.32 1.25 1.25 1.36 1.48 1.64 1.71 1.66 1.61 1.63 1.59 1.51 1.39 1.30 1.21 1.15 1.10 1.05 1.02 1.01 0.99 0.98 0.98 0.97 1.00 0.98 0.99 1.05 1.07
0.15 0.18 0.23 0.46 0.53 0.54 1.14 2.10 2.04 2.10 2.25 2.18 1.97 1.75 1.59 1.53 1.49 1.38 1.35 1.39 1.33 1.25 1.17 1.23 1.29 1.25 1.30 1.33 1.44 1.53 1.43 1.37 1.30 1.24 1.17 1.11 0.99 0.93 0.92 0.94 0.90 0.82 0.81 0.88 0.95 0.97 0.95 1.02 1.02